• In Czech Republic
  • List of Countries
  • For 7 days
  • Water Temperature
  • Satellite Maps
  • Weather Map
  • Weather Widgets
  • user-avatar
    Login

    Hourly Weather Kobetey

    Today, 20 September, Thursday

    Time Temperature Precipitation Wind Pressure Humidity
    00:00 +14°C° 0 mm 4 mps 722 mmHg 29%
    01:00 +14°C° 0 mm 5 mps 722 mmHg 30%
    02:00 +14°C° 0 mm 5 mps 722 mmHg 31%
    03:00 +13°C° 0 mm 5 mps 722 mmHg 32%
    04:00 +13°C° 0 mm 4 mps 721 mmHg 33%
    05:00 +14°C° 0 mm 4 mps 721 mmHg 33%
    06:00 +14°C° 0 mm 4 mps 721 mmHg 33%
    07:00 +15°C° 0 mm 4 mps 721 mmHg 33%
    08:00 +17°C° 0 mm 4 mps 721 mmHg 32%
    09:00 +19°C° 0 mm 5 mps 721 mmHg 31%
    10:00 +20°C° 0 mm 6 mps 721 mmHg 29%
    11:00 +22°C° 0 mm 7 mps 720 mmHg 27%
    12:00 +23°C° 0 mm 7 mps 720 mmHg 28%
    13:00 +23°C° 0 mm 8 mps 720 mmHg 29%
    14:00 +24°C° 0 mm 8 mps 720 mmHg 30%
    15:00 +23°C° 0 mm 7 mps 720 mmHg 34%
    16:00 +22°C° 0 mm 7 mps 720 mmHg 37%
    17:00 +21°C° 0 mm 6 mps 720 mmHg 41%
    18:00 +19°C° 0.1 mm 6 mps 720 mmHg 48%
    19:00 +17°C° 0.1 mm 5 mps 720 mmHg 54%
    20:00 +17°C° 0.1 mm 4 mps 720 mmHg 61%
    21:00 +15°C° 0.2 mm 5 mps 720 mmHg 64%
    22:00 +14°C° 0.2 mm 5 mps 720 mmHg 68%
    23:00 +14°C° 0.2 mm 5 mps 720 mmHg 71%

    Tomorrow, 21 September, Friday

    Time Temperature Precipitation Wind Pressure Humidity
    00:00 +13°C° 0.2 mm 5 mps 720 mmHg 72%
    01:00 +13°C° 0.2 mm 5 mps 720 mmHg 73%
    02:00 +12°C° 0.2 mm 5 mps 720 mmHg 74%
    03:00 +12°C° 0.3 mm 5 mps 720 mmHg 69%
    04:00 +10°C° 0.3 mm 5 mps 721 mmHg 65%
    05:00 +10°C° 0.3 mm 6 mps 721 mmHg 60%
    06:00 +10°C° 0 mm 7 mps 721 mmHg 59%
    07:00 +10°C° 0 mm 8 mps 721 mmHg 58%
    08:00 +11°C° 0 mm 9 mps 721 mmHg 57%
    09:00 +11°C° 0.1 mm 9 mps 721 mmHg 57%
    10:00 +12°C° 0.1 mm 10 mps 722 mmHg 56%
    11:00 +13°C° 0.1 mm 10 mps 722 mmHg 56%
    12:00 +12°C° 0.5 mm 10 mps 722 mmHg 60%
    13:00 +12°C° 0.5 mm 10 mps 722 mmHg 64%
    14:00 +12°C° 0.5 mm 10 mps 722 mmHg 68%
    15:00 +12°C° 0.1 mm 10 mps 723 mmHg 64%
    16:00 +12°C° 0.1 mm 9 mps 723 mmHg 60%
    17:00 +13°C° 0.1 mm 9 mps 724 mmHg 56%
    18:00 +12°C° 0 mm 8 mps 724 mmHg 57%
    19:00 +11°C° 0 mm 7 mps 724 mmHg 59%
    20:00 +10°C° 0 mm 7 mps 725 mmHg 61%
    21:00 +10°C° 0 mm 6 mps 725 mmHg 62%
    22:00 +10°C° 0 mm 6 mps 725 mmHg 63%
    23:00 +10°C° 0 mm 6 mps 725 mmHg 65%

    Day after tomorrow, 22 September, Saturday

    Time Temperature Precipitation Wind Pressure Humidity
    00:00 +9°C° 0 mm 6 mps 725 mmHg 67%
    01:00 +9°C° 0 mm 6 mps 725 mmHg 70%
    02:00 +8°C° 0 mm 6 mps 725 mmHg 72%
    03:00 +9°C° 0 mm 7 mps 725 mmHg 72%
    04:00 +9°C° 0 mm 7 mps 725 mmHg 72%
    05:00 +9°C° 0 mm 7 mps 725 mmHg 72%
    06:00 +9°C° 0.2 mm 7 mps 726 mmHg 71%
    07:00 +10°C° 0.2 mm 8 mps 726 mmHg 70%
    08:00 +10°C° 0.2 mm 8 mps 726 mmHg 70%
    09:00 +11°C° 0 mm 8 mps 726 mmHg 64%
    10:00 +13°C° 0 mm 8 mps 727 mmHg 59%
    11:00 +15°C° 0 mm 8 mps 727 mmHg 53%
    12:00 +16°C° 0 mm 8 mps 727 mmHg 50%
    13:00 +16°C° 0 mm 8 mps 727 mmHg 48%
    14:00 +17°C° 0 mm 8 mps 727 mmHg 45%
    15:00 +17°C° 0 mm 7 mps 727 mmHg 46%
    16:00 +17°C° 0 mm 7 mps 727 mmHg 47%
    17:00 +17°C° 0 mm 6 mps 727 mmHg 47%
    18:00 +15°C° 0 mm 5 mps 727 mmHg 52%
    19:00 +14°C° 0 mm 4 mps 728 mmHg 57%
    20:00 +13°C° 0 mm 3 mps 728 mmHg 62%
    21:00 +12°C° 0 mm 3 mps 728 mmHg 66%
    22:00 +12°C° 0 mm 3 mps 728 mmHg 70%
    23:00 +11°C° 0 mm 3 mps 728 mmHg 73%

    23 September, Sunday

    Time Temperature Precipitation Wind Pressure Humidity
    00:00 +11°C° 0 mm 3 mps 728 mmHg 76%
    01:00 +11°C° 0 mm 3 mps 727 mmHg 79%
    02:00 +10°C° 0 mm 3 mps 727 mmHg 82%
    03:00 +11°C° 0.1 mm 3 mps 727 mmHg 83%
    04:00 +11°C° 0.1 mm 3 mps 727 mmHg 83%
    05:00 +11°C° 0.1 mm 3 mps 728 mmHg 84%
    06:00 +11°C° 0.3 mm 4 mps 728 mmHg 83%
    07:00 +11°C° 0.3 mm 4 mps 728 mmHg 82%
    08:00 +12°C° 0.3 mm 4 mps 728 mmHg 81%
    09:00 +12°C° 0.9 mm 4 mps 728 mmHg 78%
    10:00 +12°C° 0.9 mm 4 mps 728 mmHg 75%
    11:00 +13°C° 0.9 mm 4 mps 728 mmHg 72%
    12:00 +13°C° 0.3 mm 4 mps 728 mmHg 68%
    13:00 +14°C° 0.3 mm 3 mps 728 mmHg 64%
    14:00 +16°C° 0.3 mm 3 mps 727 mmHg 60%
    15:00 +14°C° 0.2 mm 3 mps 728 mmHg 59%
    16:00 +14°C° 0.2 mm 3 mps 728 mmHg 58%
    17:00 +14°C° 0.2 mm 4 mps 728 mmHg 57%
    18:00 +13°C° 0.1 mm 4 mps 728 mmHg 62%
    19:00 +12°C° 0.1 mm 4 mps 729 mmHg 68%
    20:00 +11°C° 0.1 mm 4 mps 729 mmHg 73%
    21:00 +10°C° 0 mm 4 mps 729 mmHg 77%
    22:00 +10°C° 0 mm 3 mps 729 mmHg 81%
    23:00 +9°C° 0 mm 3 mps 729 mmHg 84%

    24 September, Monday

    Time Temperature Precipitation Wind Pressure Humidity
    00:00 +9°C° 0 mm 3 mps 729 mmHg 86%
    01:00 +8°C° 0 mm 3 mps 729 mmHg 87%
    02:00 +8°C° 0 mm 3 mps 729 mmHg 88%
    03:00 +7°C° 0 mm 2 mps 730 mmHg 89%
    04:00 +7°C° 0 mm 2 mps 730 mmHg 91%
    05:00 +7°C° 0 mm 2 mps 730 mmHg 92%
    06:00 +8°C° 0 mm 2 mps 731 mmHg 90%
    07:00 +8°C° 0 mm 2 mps 731 mmHg 88%
    08:00 +9°C° 0 mm 2 mps 731 mmHg 86%
    09:00 +10°C° 0.1 mm 2 mps 732 mmHg 80%
    10:00 +10°C° 0.1 mm 2 mps 732 mmHg 75%
    11:00 +12°C° 0.1 mm 2 mps 732 mmHg 70%
    12:00 +13°C° 0 mm 2 mps 732 mmHg 65%
    13:00 +13°C° 0 mm 3 mps 732 mmHg 59%
    14:00 +14°C° 0 mm 3 mps 732 mmHg 54%
    15:00 +13°C° 0 mm 3 mps 732 mmHg 54%
    16:00 +13°C° 0 mm 3 mps 732 mmHg 54%
    17:00 +13°C° 0 mm 3 mps 732 mmHg 54%
    18:00 +13°C° 0 mm 2 mps 733 mmHg 59%
    19:00 +12°C° 0 mm 1 mps 733 mmHg 64%
    20:00 +11°C° 0 mm 1 mps 733 mmHg 69%
    21:00 +11°C° 0 mm 1 mps 733 mmHg 70%
    22:00 +10°C° 0 mm 1 mps 733 mmHg 70%
    23:00 +10°C° 0 mm 1 mps 734 mmHg 71%

    25 September, Tuesday

    Time Temperature Precipitation Wind Pressure Humidity
    00:00 +9°C° 0 mm 2 mps 734 mmHg 71%
    01:00 +9°C° 0 mm 2 mps 734 mmHg 71%
    02:00 +9°C° 0 mm 2 mps 734 mmHg 72%
    03:00 +8°C° 0 mm 2 mps 734 mmHg 72%
    04:00 +8°C° 0 mm 2 mps 734 mmHg 73%
    05:00 +8°C° 0 mm 2 mps 734 mmHg 73%
    06:00 +9°C° 0 mm 2 mps 735 mmHg 70%
    07:00 +10°C° 0 mm 2 mps 735 mmHg 66%
    08:00 +12°C° 0 mm 2 mps 735 mmHg 62%
    09:00 +13°C° 0 mm 2 mps 736 mmHg 56%
    10:00 +15°C° 0 mm 2 mps 736 mmHg 49%
    11:00 +16°C° 0 mm 2 mps 736 mmHg 43%
    12:00 +17°C° 0 mm 2 mps 735 mmHg 40%
    13:00 +18°C° 0 mm 2 mps 735 mmHg 37%
    14:00 +19°C° 0 mm 2 mps 735 mmHg 34%
    15:00 +19°C° 0 mm 2 mps 735 mmHg 35%
    16:00 +20°C° 0 mm 1 mps 735 mmHg 36%
    17:00 +20°C° 0 mm 1 mps 735 mmHg 36%
    18:00 +18°C° 0 mm 1 mps 735 mmHg 40%
    19:00 +15°C° 0 mm 1 mps 735 mmHg 45%
    20:00 +14°C° 0 mm 1 mps 735 mmHg 49%
    21:00 +14°C° 0 mm 1 mps 735 mmHg 49%
    22:00 +13°C° 0 mm 1 mps 735 mmHg 50%
    23:00 +13°C° 0 mm 1 mps 735 mmHg 50%
    Show more